Time,TemperatureF,DewpointF,PressureIn,WindDirection,WindDirectionDegrees,WindSpeedMPH,WindSpeedGustMPH,Humidity,HourlyPrecipIn,Conditions,Clouds,dailyrainin,SolarRadiationWatts/m^2,SoftwareType,DateUTC
2013-08-14 01:00:00,43.0,41.0,-100.00,SSW,202,0.0,-999.0,93,-99.99,,,-99.99,0.000000,,2013-08-14 06:00:00,
2013-08-14 01:42:00,43.0,41.0,-100.00,SSW,202,0.0,-999.0,93,-99.99,,,-99.99,0.000000,,2013-08-14 06:42:00,
2013-08-14 01:52:00,43.0,41.0,-100.00,SSW,202,0.0,-999.0,93,-99.99,,,-99.99,0.000000,,2013-08-14 06:52:00,
2013-08-14 02:00:00,42.0,41.0,-100.00,SW,225,0.0,-999.0,94,-99.99,,,-99.99,0.000000,,2013-08-14 07:00:00,
2013-08-14 02:42:00,42.0,41.0,-100.00,SW,225,0.0,-999.0,94,-99.99,,,-99.99,0.000000,,2013-08-14 07:42:00,
2013-08-14 02:52:00,42.0,41.0,-100.00,SW,225,0.0,-999.0,94,-99.99,,,-99.99,0.000000,,2013-08-14 07:52:00,
2013-08-14 03:00:00,42.0,41.0,-100.00,SW,225,0.0,-999.0,95,-99.99,,,-99.99,0.000000,,2013-08-14 08:00:00,
2013-08-14 03:42:00,42.0,41.0,-100.00,SW,225,0.0,-999.0,95,-99.99,,,-99.99,0.000000,,2013-08-14 08:42:00,
2013-08-14 03:52:00,42.0,41.0,-100.00,SW,225,0.0,-999.0,95,-99.99,,,-99.99,0.000000,,2013-08-14 08:52:00,
2013-08-14 04:00:00,43.0,42.0,-100.00,WNW,292,0.0,-999.0,95,-99.99,,,-99.99,0.000000,,2013-08-14 09:00:00,
2013-08-14 04:43:00,43.0,42.0,-100.00,WNW,292,0.0,-999.0,95,-99.99,,,-99.99,0.000000,,2013-08-14 09:43:00,
2013-08-14 04:53:00,43.0,42.0,-100.00,WNW,292,0.0,-999.0,95,-99.99,,,-99.99,0.000000,,2013-08-14 09:53:00,
2013-08-14 05:00:00,47.0,46.0,-100.00,NW,315,0.0,-999.0,96,-99.99,,,-99.99,0.000000,,2013-08-14 10:00:00,
2013-08-14 05:43:00,47.0,46.0,-100.00,NW,315,0.0,-999.0,96,-99.99,,,-99.99,0.000000,,2013-08-14 10:43:00,
2013-08-14 05:52:00,47.0,46.0,-100.00,NW,315,0.0,-999.0,96,-99.99,,,-99.99,0.000000,,2013-08-14 10:52:00,
2013-08-14 06:00:00,44.0,43.0,-100.00,WNW,292,0.0,-999.0,95,-99.99,,,-99.99,2.320000,,2013-08-14 11:00:00,
2013-08-14 06:42:00,44.0,43.0,-100.00,WNW,292,0.0,-999.0,95,-99.99,,,-99.99,2.320000,,2013-08-14 11:42:00,
2013-08-14 06:52:00,44.0,43.0,-100.00,WNW,292,0.0,-999.0,95,-99.99,,,-99.99,2.320000,,2013-08-14 11:52:00,
2013-08-14 07:00:00,47.0,46.0,-100.00,NW,315,1.0,-999.0,96,-99.99,,,-99.99,41.759998,,2013-08-14 12:00:00,
2013-08-14 07:42:00,47.0,46.0,-100.00,NW,315,1.0,-999.0,96,-99.99,,,-99.99,41.759998,,2013-08-14 12:42:00,
2013-08-14 07:52:00,47.0,46.0,-100.00,NW,315,1.0,-999.0,96,-99.99,,,-99.99,41.759998,,2013-08-14 12:52:00,
2013-08-14 08:00:00,55.0,52.0,-100.00,NNW,337,1.0,-999.0,88,-99.99,,,-99.99,245.919998,,2013-08-14 13:00:00,
2013-08-14 08:42:00,55.0,52.0,-100.00,NNW,337,1.0,-999.0,88,-99.99,,,-99.99,245.919998,,2013-08-14 13:42:00,
2013-08-14 08:52:00,55.0,52.0,-100.00,NNW,337,1.0,-999.0,88,-99.99,,,-99.99,245.919998,,2013-08-14 13:52:00,
2013-08-14 09:00:00,59.0,50.0,-100.00,NNW,337,3.0,-999.0,73,-99.99,,,-99.99,428.040009,,2013-08-14 14:00:00,
2013-08-14 09:42:00,59.0,50.0,-100.00,NNW,337,3.0,-999.0,73,-99.99,,,-99.99,428.040009,,2013-08-14 14:42:00,
2013-08-14 09:52:00,59.0,50.0,-100.00,NNW,337,3.0,-999.0,73,-99.99,,,-99.99,428.040009,,2013-08-14 14:52:00,
2013-08-14 10:00:00,60.0,48.0,-100.00,North,0,4.0,-999.0,64,-99.99,,,-99.99,593.919983,,2013-08-14 15:00:00,
2013-08-14 10:44:00,60.0,48.0,-100.00,North,0,4.0,-999.0,64,-99.99,,,-99.99,593.919983,,2013-08-14 15:44:00,
2013-08-14 10:57:00,60.0,48.0,-100.00,North,0,4.0,-999.0,64,-99.99,,,-99.99,593.919983,,2013-08-14 15:57:00,
2013-08-14 11:00:00,62.0,47.0,-100.00,NW,315,3.0,-999.0,56,-99.99,,,-99.99,730.799988,,2013-08-14 16:00:00,
2013-08-14 11:43:00,62.0,47.0,-100.00,NW,315,3.0,-999.0,56,-99.99,,,-99.99,730.799988,,2013-08-14 16:43:00,
2013-08-14 12:00:00,64.0,47.0,-100.00,WNW,292,3.0,-999.0,55,-99.99,,,-99.99,827.080017,,2013-08-14 17:00:00,
2013-08-14 12:44:00,64.0,47.0,-100.00,WNW,292,3.0,-999.0,55,-99.99,,,-99.99,827.080017,,2013-08-14 17:44:00,
2013-08-14 12:55:00,64.0,47.0,-100.00,WNW,292,3.0,-999.0,55,-99.99,,,-99.99,827.080017,,2013-08-14 17:55:00,
2013-08-14 13:00:00,65.0,47.0,-100.00,NW,315,3.0,-999.0,52,-99.99,,,-99.99,872.320007,,2013-08-14 18:00:00,
2013-08-14 14:00:00,67.0,48.0,-100.00,WNW,292,3.0,-999.0,50,-99.99,,,-99.99,900.159973,,2013-08-14 19:00:00,
2013-08-14 14:42:00,67.0,48.0,-100.00,WNW,292,3.0,-999.0,50,-99.99,,,-99.99,900.159973,,2013-08-14 19:42:00,
2013-08-14 14:57:00,67.0,48.0,-100.00,WNW,292,3.0,-999.0,50,-99.99,,,-99.99,900.159973,,2013-08-14 19:57:00,
2013-08-14 15:00:00,66.0,47.0,-100.00,WNW,292,2.0,-999.0,48,-99.99,,,-99.99,520.840027,,2013-08-14 20:00:00,
2013-08-14 15:49:00,66.0,47.0,-100.00,WNW,292,2.0,-999.0,48,-99.99,,,-99.99,520.840027,,2013-08-14 20:49:00,
2013-08-14 16:00:00,68.0,46.0,-100.00,WSW,247,3.0,-999.0,46,-99.99,,,-99.99,575.359985,,2013-08-14 21:00:00,
2013-08-14 16:45:00,68.0,46.0,-100.00,WSW,247,3.0,-999.0,46,-99.99,,,-99.99,575.359985,,2013-08-14 21:45:00,
2013-08-14 16:55:00,68.0,46.0,-100.00,WSW,247,3.0,-999.0,46,-99.99,,,-99.99,575.359985,,2013-08-14 21:55:00,
2013-08-14 17:00:00,67.0,47.0,-100.00,WSW,247,2.0,-999.0,48,-99.99,,,-99.99,399.040009,,2013-08-14 22:00:00,
2013-08-14 17:44:00,67.0,47.0,-100.00,WSW,247,2.0,-999.0,48,-99.99,,,-99.99,399.040009,,2013-08-14 22:44:00,
2013-08-14 17:55:00,67.0,47.0,-100.00,WSW,247,2.0,-999.0,48,-99.99,,,-99.99,399.040009,,2013-08-14 22:55:00,
2013-08-14 18:00:00,69.0,46.0,-100.00,SW,225,2.0,-999.0,44,-99.99,,,-99.99,403.679993,,2013-08-14 23:00:00,
2013-08-14 18:46:00,69.0,46.0,-100.00,SW,225,2.0,-999.0,44,-99.99,,,-99.99,403.679993,,2013-08-14 23:46:00,
2013-08-14 18:56:00,69.0,46.0,-100.00,SW,225,2.0,-999.0,44,-99.99,,,-99.99,403.679993,,2013-08-14 23:56:00,
2013-08-14 19:00:00,64.0,51.0,-100.00,South,180,5.0,-999.0,62,-99.99,,,-99.99,203.000000,,2013-08-15 00:00:00,
2013-08-14 19:43:00,64.0,51.0,-100.00,South,180,5.0,-999.0,62,-99.99,,,-99.99,203.000000,,2013-08-15 00:43:00,
2013-08-14 19:52:00,64.0,51.0,-100.00,South,180,5.0,-999.0,62,-99.99,,,-99.99,203.000000,,2013-08-15 00:52:00,
2013-08-14 20:00:00,60.0,50.0,-100.00,South,180,4.0,-999.0,71,-99.99,,,-99.99,27.840000,,2013-08-15 01:00:00,
2013-08-14 20:42:00,60.0,50.0,-100.00,South,180,4.0,-999.0,71,-99.99,,,-99.99,27.840000,,2013-08-15 01:42:00,
2013-08-14 20:52:00,60.0,50.0,-100.00,South,180,4.0,-999.0,71,-99.99,,,-99.99,27.840000,,2013-08-15 01:52:00,
2013-08-14 21:00:00,57.0,49.0,-100.00,South,180,4.0,-999.0,74,-99.99,,,-99.99,0.000000,,2013-08-15 02:00:00,
2013-08-14 21:52:00,57.0,49.0,-100.00,South,180,4.0,-999.0,74,-99.99,,,-99.99,0.000000,,2013-08-15 02:52:00,
2013-08-14 23:00:00,57.0,49.0,-100.00,SSW,202,5.0,-999.0,73,-99.99,,,-99.99,0.000000,,2013-08-15 04:00:00,
2013-08-14 23:43:00,57.0,49.0,-100.00,SSW,202,5.0,-999.0,73,-99.99,,,-99.99,0.000000,,2013-08-15 04:43:00,
2013-08-14 23:52:00,57.0,49.0,-100.00,SSW,202,5.0,-999.0,73,-99.99,,,-99.99,0.000000,,2013-08-15 04:52:00,